Location: Nashville
(36.1660°N, 86.7840°W)
Time: 06:41:08
(UTC-05:00)

AO-109 - Pass Details

Date: 30 May 2022
Orbit: 477 x 502 km, 60.7° (Epoch: 27 June)

Event Time Altitude Azimuth Distance (km) Brightness Sun altitude
Rises 21:47:03 0° 340° (NNW) 2,597 ? -18.3°
Reaches altitude 10° 21:49:53 10° 2° (N) 1,713 ? -18.7°
Maximum altitude 21:52:23 16° 43° (NE) 1,357 ? -19.1°
Enters shadow 21:53:28 15° 63° (ENE) 1,430 ? -19.2°
